[[{"header":{"parameterUnit":"m.s-1","parameterCategory":1,"la1":30.2991,"la2":30.254,"lo1":-89.0895,"lo2":-89.0444,"dy":0.0017,"dx":0.0017,"nx":28,"ny":28,"refTime":"2024-03-15T09:00:00:Z","depth":0,"parameterNumber":2,"parameterNumberName":"U-component_of_WINDS"},"data":[0,0,0,0,0,0,0,0,0,0,0,0,0,0,0,0,0,0,0,0,0,0,0,0,0,0,0,0,0,0,0,0,0,0,0,0,0,0,0,0,0,0,0,0,0,0,0,0,0,0,0,0,0,0,0,0,0,0,-4.4519,-4.452,0,-4.4625,-4.4626,-4.4628,-4.4597,-4.4595,-4.4593,-4.4591,-4.47,-4.4705,-4.471,0,0,0,0,0,0,0,0,0,0,0,0,0,-4.429,-4.4294,-4.4518,-4.452,-4.4521,-4.4625,-4.4627,-4.4628,-4.4598,-4.4595,-4.4592,-4.459,-4.4698,-4.4704,-4.471,0,0,0,0,0,0,0,0,0,0,0,0,0,-4.4392,-4.4296,-4.4518,-4.4519,-4.452,-4.4625,-4.4627,-4.4628,-4.4598,-4.4595,-4.4592,-4.4589,-4.4697,-4.4704,-4.4711,-4.4822,0,0,-4.4734,-4.4737,0,0,0,0,0,0,0,0,-4.4386,-4.4401,-4.4517,-4.4519,-4.452,-4.4595,-4.4586,-4.4693,-4.4599,-4.4568,-4.4591,-4.4587,-4.4668,-4.4677,-4.4704,-4.4827,-4.4832,-4.4734,-4.4739,-4.4742,-4.4744,0,0,0,0,0,0,0,-4.4379,-4.4396,-4.4561,-4.4519,-4.4521,-4.4514,-4.4525,-4.4606,-4.4635,-4.4571,-4.4569,-4.4582,-4.4668,-4.4697,-4.4707,-4.4834,-4.4734,-4.4741,-4.4745,-4.4748,-4.5054,-4.5058,0,0,0,0,0,0,-4.4371,-4.439,-4.4557,-4.4564,-4.4444,-4.4521,-4.4533,-4.4574,-4.4634,-4.464,-4.4585,-4.458,-4.4686,-4.4698,-4.471,-4.4844,-4.4742,-4.4749,-4.4753,-4.5051,-4.5055,-4.5059,0,0,0,0,0,0,-4.4366,-4.4386,-4.4553,-4.4477,-4.4497,-4.4528,-4.4575,-4.4578,-4.4607,-4.4645,-4.465,-4.4609,-4.4684,-4.47,-4.4795,-4.4848,-4.4752,-4.4759,-4.5046,-4.5052,-4.5057,-4.5113,0,0,0,0,0,0,-4.436,-4.4385,-4.4427,-4.4478,-4.4501,-4.4635,-4.4578,-4.4582,-4.462,-4.4615,-4.4669,-4.4675,-4.4683,-4.4784,-4.4802,-4.4856,-4.4765,-4.5042,-4.5049,-4.5055,-4.5107,-4.512,-4.5131,0,0,0,0,0,-4.4352,-4.4438,-4.4429,-4.4449,-4.4555,-4.4638,-4.4652,-4.4659,-4.4624,-4.4667,-4.4692,-4.4673,-4.484,-4.4794,-4.4814,-4.4871,-4.5038,-4.5047,-4.5055,-4.5101,-4.5117,-4.5131,0,0,0,0,0,0,-4.4392,-4.4445,-4.4435,-4.454,-4.4585,-4.4633,-4.4687,-4.4676,-4.4731,-4.4725,-4.4732,-4.4744,-4.4841,-4.4866,-4.4814,-4.4983,-4.4934,-4.4947,-4.4962,-4.4978,-4.499,-4.4981,-4.4771,0,0,0,0,0,-4.4413,-4.4476,-4.4519,-4.4608,-4.4631,-4.4656,-4.4692,-4.4694,-4.4741,-4.476,-4.4791,-4.4837,-4.49,-4.4941,-4.5,-4.5111,-4.5123,-4.5161,-4.5173,-4.5183,-4.5193,-4.5254,-4.5272,-4.5086,-4.5086,-4.5086,0,0,-4.4457,-4.4494,-4.4533,-4.4617,-4.4652,-4.4718,-4.4671,-4.4743,-4.4792,-4.477,-4.4861,-4.4887,-4.4939,-4.5042,-4.5089,-4.5066,-4.5248,-4.5194,-4.5201,-4.5206,-4.5265,-4.5282,-4.5298,-4.5092,-4.5091,-4.509,0,0,-4.457,-4.4605,-4.4683,-4.4719,-4.4773,-4.4789,-4.4808,-4.4858,-4.4874,-4.4966,-4.4952,-4.5011,-4.5119,-4.5156,-4.519,-4.5321,-4.5306,-4.5341,-4.5404,-4.5463,-4.5478,-4.5491,-4.5537,-4.5553,-4.5351,-4.5351,-4.5351,0,-4.4618,-4.4716,-4.4724,-4.4797,-4.4835,-4.482,-4.4899,-4.4934,-4.5005,-4.5031,-4.5005,-4.5141,-4.5175,-4.5287,-4.5319,-4.5347,-4.5369,-4.5333,-4.5475,-4.5488,-4.55,-4.5544,-4.5562,-4.5355,-4.5355,-4.5354,-4.5354,0,-4.4772,-4.484,-4.4897,-4.4966,-4.501,-4.5086,-4.5106,-4.515,-4.515,-4.5169,-4.5264,-4.5305,-4.5373,-4.54,-4.54,-4.5513,-4.5497,-4.5473,-4.5423,-4.5522,-4.5563,-4.558,-4.536,-4.5359,-4.5358,-4.5357,0,0,-4.491,-4.4984,-4.5005,-4.5036,-4.5096,-4.515,-4.5226,-4.5293,-4.533,-4.5381,-4.5444,-4.5538,-4.5516,-4.5554,-4.5559,-4.5611,-4.5712,-4.5581,-4.5582,-4.5603,-4.5839,-4.5855,-4.5875,-4.5704,-4.5707,-4.571,-4.5834,0,-4.5027,-4.516,-4.5171,-4.5291,-4.5355,-4.5343,-4.541,-4.5454,-4.5475,-4.5532,-4.5556,-4.5621,-4.5588,-4.5611,-4.5663,-4.5689,-4.5759,-4.568,-4.5763,-4.5765,-4.5748,-4.5897,-4.5914,-4.6029,-4.5851,-4.5854,-4.5856,0,-4.5181,-4.5236,-4.5363,-4.5415,-4.5442,-4.5501,-4.5564,-4.562,-4.5671,-4.5682,-4.5726,-4.5724,-4.5803,-4.5753,-4.5862,-4.5808,-4.5843,-4.5861,-4.5866,-4.5872,-4.5815,-4.5905,-4.6066,-4.6083,-4.5881,-4.5879,-4.5877,0,-4.5268,-4.5374,-4.5464,-4.5491,-4.5555,-4.5597,-4.5625,-4.5673,-4.5713,-4.5769,-4.5795,-4.5859,-4.5894,-4.5945,-4.596,-4.5922,-4.6069,-4.602,-4.608,-4.608,-4.6109,-4.6107,-4.6276,-4.6135,-4.6135,-4.6135,-4.6134,0,-4.5396,-4.5474,-4.5504,-4.5558,-4.5645,-4.5658,-4.5744,-4.577,-4.5813,-4.5873,-4.5869,-4.5925,-4.5944,-4.6004,-4.6017,-4.6105,-4.6121,-4.6133,-4.6135,-4.6132,-4.613,-4.6153,-4.6145,-4.6139,-4.6138,-4.6137,-4.6136,0,-4.5506,-4.553,-4.5626,-4.5679,-4.5695,-4.5756,-4.5802,-4.5855,-4.5876,-4.5953,-4.5971,-4.6004,-4.6075,-4.6097,-4.6182,-4.6191,-4.6294,-4.629,-4.6276,-4.6276,-4.6334,-4.6328,-4.6523,-4.6549,-4.6392,-4.6394,-4.6395,0,-4.5586,-4.5645,-4.5705,-4.5745,-4.5776,-4.584,-4.5882,-4.5898,-4.5941,-4.6005,-4.605,-4.6121,-4.6177,-4.6291,-4.6323,-4.6388,-4.6385,-4.6449,-4.6394,-4.639,-4.6384,-4.638,-4.6386,-4.6458,-4.646,-4.6461,-4.6462,0,-4.5724,-4.5733,-4.5793,-4.5858,-4.5907,-4.5959,-4.6009,-4.6042,-4.6065,-4.6115,-4.6187,-4.6231,-4.6319,-4.6389,-4.6456,-4.6486,-4.6478,-4.648,-4.6497,-4.6493,-4.6482,-4.6488,-4.6302,-4.6474,-4.6473,-4.6472,-4.6472,-4.6471,-4.582,-4.5873,-4.5923,-4.5991,-4.603,-4.6077,-4.613,-4.6159,-4.622,-4.6292,-4.6299,-4.6377,-4.6428,-4.6517,-4.6551,-4.6613,-4.6594,-4.6619,-4.6626,-4.6631,-4.6635,-4.6475,-4.6626,-4.6625,-4.6625,-4.6625,-4.6624,0,-4.5957,-4.599,-4.6052,-4.6122,-4.6175,-4.6165,-4.622,-4.6265,-4.6334,-4.6383,-4.6439,-4.6523,-4.6592,-4.663,-4.6698,-4.6741,-4.6739,-4.6758,-4.6754,-4.6761,-4.6648,-4.6626,-4.6758,-4.6758,-4.6758,-4.6758,-4.6758,-4.6758,-4.6034,-4.6122,-4.6138,-4.6247,-4.6279,-4.6356,-4.6388,-4.6432,-4.6471,-4.6565,-4.6622,-4.6647,-4.6692,-4.6764,-4.6826,-4.6836,-4.6861,-4.6882,-4.6889,-4.6783,-4.6769,-4.6756,-4.6734,-4.6887,-4.6888,-4.6996,-4.6997,-4.6998]},{"header":{"parameterUnit":"m.s-1","parameterCategory":1,"la1":30.2991,"la2":30.254,"lo1":-89.0895,"lo2":-89.0444,"dy":0.0017,"dx":0.0017,"nx":28,"ny":28,"refTime":"2024-03-15T09:00:00:Z","depth":0,"parameterNumber":3,"parameterNumberName":"V-component_of_WINDS"},"data":[0,0,0,0,0,0,0,0,0,0,0,0,0,0,0,0,0,0,0,0,0,0,0,0,0,0,0,0,0,0,0,0,0,0,0,0,0,0,0,0,0,0,0,0,0,0,0,0,0,0,0,0,0,0,0,0,0,0,2.7272,2.7273,0,2.736,2.7361,2.7362,2.7403,2.7403,2.7403,2.7403,2.7489,2.7491,2.7493,0,0,0,0,0,0,0,0,0,0,0,0,0,2.7137,2.7139,2.7272,2.7273,2.7274,2.736,2.7361,2.7363,2.7403,2.7403,2.7403,2.7403,2.7488,2.7491,2.7493,0,0,0,0,0,0,0,0,0,0,0,0,0,2.7207,2.714,2.7272,2.7305,2.7309,2.736,2.7361,2.7363,2.7403,2.7403,2.7403,2.7403,2.7487,2.749,2.7494,2.7518,0,0,2.7505,2.7506,0,0,0,0,0,0,0,0,2.7203,2.7212,2.7299,2.7303,2.7307,2.7371,2.7345,2.7415,2.7403,2.7367,2.7403,2.7402,2.7449,2.7456,2.7472,2.7522,2.7525,2.7505,2.7507,2.7509,2.751,0,0,0,0,0,0,0,2.7198,2.7208,2.7307,2.73,2.7305,2.7315,2.7324,2.7359,2.7407,2.737,2.7373,2.7383,2.7451,2.7469,2.7475,2.7527,2.7505,2.7508,2.751,2.7512,2.7604,2.7604,0,0,0,0,0,0,2.7188,2.7204,2.7304,2.7309,2.7254,2.7317,2.7328,2.735,2.7407,2.7416,2.7383,2.7385,2.7463,2.7471,2.7478,2.7512,2.7509,2.7512,2.7514,2.7603,2.7604,2.7604,0,0,0,0,0,0,2.7185,2.7197,2.73,2.7258,2.7272,2.732,2.7344,2.7352,2.737,2.7417,2.7426,2.7393,2.7463,2.7473,2.7509,2.7516,2.7513,2.7517,2.7603,2.7603,2.7604,2.7579,0,0,0,0,0,0,2.7181,2.7195,2.7205,2.7258,2.7274,2.733,2.7344,2.7354,2.7376,2.7379,2.7428,2.7436,2.7464,2.7503,2.7512,2.752,2.7519,2.7602,2.7603,2.7604,2.7579,2.7578,2.7578,0,0,0,0,0,2.7176,2.7193,2.7205,2.7217,2.7287,2.733,2.734,2.7372,2.7376,2.7387,2.7418,2.7435,2.7513,2.7506,2.7517,2.7526,2.7602,2.7603,2.7604,2.758,2.7579,2.7578,0,0,0,0,0,0,2.7137,2.72,2.7215,2.7249,2.7285,2.7337,2.7351,2.737,2.7403,2.7404,2.7442,2.7453,2.7486,2.7509,2.7501,2.7554,2.7559,2.7562,2.7537,2.7537,2.7536,2.753,2.7522,0,0,0,0,0,2.7133,2.7164,2.7217,2.7242,2.7259,2.7302,2.7322,2.7345,2.7382,2.7397,2.743,2.7465,2.7498,2.7519,2.7551,2.7583,2.7595,2.7595,2.7594,2.7593,2.7595,2.7616,2.7617,2.7606,2.7606,2.7606,0,0,2.7124,2.7162,2.7179,2.7235,2.7265,2.7296,2.7314,2.7345,2.7369,2.7401,2.7438,2.7464,2.7505,2.754,2.7557,2.7561,2.7601,2.7594,2.7593,2.7596,2.7617,2.7618,2.7619,2.7607,2.7607,2.7607,0,0,2.7124,2.7155,2.7181,2.7212,2.7258,2.7287,2.7293,2.7344,2.7364,2.7402,2.7428,2.7455,2.751,2.754,2.7562,2.7577,2.7594,2.7586,2.7582,2.7602,2.7603,2.7604,2.7611,2.7613,2.7588,2.7588,2.7588,0,2.7106,2.7155,2.7192,2.7223,2.7248,2.7281,2.7308,2.7335,2.7389,2.7405,2.7409,2.7482,2.7512,2.7555,2.7559,2.7575,2.7585,2.7581,2.76,2.7602,2.7603,2.7611,2.7613,2.7587,2.7587,2.7587,2.7587,0,2.7132,2.7166,2.7181,2.7235,2.7262,2.729,2.7332,2.7354,2.7375,2.7404,2.7443,2.7481,2.7523,2.7535,2.7554,2.7582,2.7583,2.7593,2.7599,2.7603,2.761,2.7613,2.7585,2.7586,2.7586,2.7586,0,0,2.7108,2.7185,2.719,2.7217,2.7272,2.7298,2.7329,2.7373,2.7392,2.7428,2.7456,2.7504,2.7515,2.754,2.7563,2.7581,2.7593,2.7589,2.7591,2.759,2.7628,2.7621,2.7623,2.7605,2.7605,2.7606,2.7625,0,2.7116,2.7175,2.7211,2.7255,2.7287,2.7321,2.7348,2.7385,2.7413,2.7444,2.7475,2.7509,2.752,2.7536,2.7555,2.7587,2.7601,2.7586,2.7631,2.7632,2.7621,2.7627,2.7619,2.7635,2.7628,2.7628,2.7629,0,2.7133,2.7173,2.7221,2.7275,2.729,2.7314,2.7359,2.7388,2.7431,2.7451,2.7481,2.7505,2.754,2.7543,2.7592,2.7581,2.7602,2.7621,2.7622,2.7628,2.7631,2.7634,2.7641,2.7644,2.7633,2.7633,2.7633,0,2.7113,2.7178,2.7216,2.7237,2.7301,2.7318,2.7345,2.7388,2.7413,2.7451,2.7468,2.7509,2.7532,2.7563,2.7598,2.7597,2.7644,2.765,2.7662,2.7661,2.767,2.7669,2.7681,2.7681,2.7681,2.7681,2.7681,0,2.7119,2.7148,2.7208,2.7231,2.7265,2.7306,2.7338,2.7367,2.7406,2.7436,2.7466,2.7494,2.7538,2.7571,2.7598,2.7636,2.7645,2.7662,2.7669,2.766,2.7658,2.7674,2.7674,2.7682,2.7682,2.7682,2.7682,0,2.7102,2.7143,2.7188,2.7246,2.7262,2.7284,2.7334,2.7358,2.7389,2.7427,2.7438,2.7486,2.7526,2.7565,2.7618,2.7637,2.7675,2.7683,2.7661,2.7665,2.7675,2.7674,2.7699,2.7705,2.7699,2.7699,2.7699,0,2.7104,2.7127,2.7189,2.7213,2.724,2.7277,2.7304,2.7345,2.7372,2.7425,2.7443,2.7486,2.7523,2.7586,2.7625,2.7667,2.7678,2.7684,2.7684,2.7675,2.768,2.7678,2.7682,2.7683,2.7682,2.7682,2.7682,0,2.7103,2.7123,2.7161,2.7208,2.724,2.7277,2.7316,2.7333,2.7383,2.7411,2.7454,2.7483,2.754,2.7583,2.763,2.7657,2.7678,2.7682,2.7687,2.7678,2.7665,2.7675,2.766,2.7681,2.7681,2.7681,2.7681,2.7681,2.7096,2.712,2.7168,2.7211,2.7245,2.7282,2.7308,2.7344,2.7382,2.7432,2.7455,2.7499,2.7544,2.7609,2.7637,2.7672,2.7676,2.7683,2.7685,2.7687,2.7686,2.766,2.768,2.768,2.768,2.768,2.768,0,2.7098,2.7132,2.7171,2.7226,2.726,2.7279,2.7324,2.7351,2.739,2.7431,2.7468,2.7519,2.7562,2.7606,2.7651,2.7671,2.7682,2.7681,2.7681,2.7687,2.7678,2.767,2.7672,2.7672,2.7672,2.7672,2.7672,2.7672,2.7103,2.7145,2.7172,2.7232,2.7265,2.731,2.7335,2.7369,2.7402,2.7459,2.7495,2.7525,2.7567,2.7617,2.7657,2.7669,2.7685,2.7682,2.7696,2.7687,2.7687,2.7688,2.768,2.7684,2.7684,2.7703,2.7703,2.7703]}]]